{"data":{"norad_id":49418,"epoch":"2026-05-25T00:18:54.224640Z","epoch_age_seconds":67134,"freshness":"FRESH","line1":"1 49418U 21104L   26145.01312760  .00000205  00000+0  30940-4 0  9998","line2":"2 49418  53.2148 246.4890 0001283  86.4802 273.6337 15.08841099250144","mean_motion":15.08841099,"eccentricity":0.0001283,"inclination_deg":53.2148,"raan_deg":246.489,"arg_perigee_deg":86.4802,"mean_anomaly_deg":273.6337,"bstar":3.094e-5,"rev_number":25014,"period_min":95.437485163572,"perigee_km":538.85246613989,"apogee_km":540.62759338572,"semimajor_km":6917.8770297628,"source":"CELESTRAK","updated_at":"2026-05-25T13:38:16.796486Z"}}